Regional Weather Roundup
Issued by NWS Portland, ME

Current Version | Previous Version | Graphics & Text | Print | Product List | Glossary Off
Versions: 1 2 3 4 5 6 7 8 9 10 11 12 13 14 15 16 17 18 19 20 21 22 23 24 25 26 27 28 29 30 31 32 33 34 35 36 37 38 39 40 41 42 43 44 45 46 47 48 49 50
000 ASUS41 KGYX 210710 RWRGYX WEATHER ROUNDUP FOR MAINE AND NEW HAMPSHIRE NATIONAL WEATHER SERVICE GRAY ME 300 AM EDT SAT JUL 21 2018 MEZ002-005-006-010-012-015-018-020-021-024-026-027-029-210800- MAINE CITY SKY/WX TMP DP RH WIND PRES REMARKS PORTLAND FAIR 58 56 93 CALM 30.17F SANFORD FAIR 46 45 96 W3 30.17F BAR HARBOR MOCLDY 54 54 100 CALM 30.20S FOG WISCASSET FOG 56 56 100 CALM 30.19F VSB 1/4 ROCKLAND FOG 54 54 100 CALM 30.19S VSB 1/4 FRYEBURG FAIR 51 51 100 CALM 30.18S LEWISTONAUBURN FAIR 53 52 96 CALM 30.18F AUGUSTA FAIR 59 58 96 SE5 30.18F WATERVILLE FAIR 56 56 100 CALM 30.16S FOG BANGOR FAIR 56 56 100 CALM 30.19S GREENVILLE N/A 60 55 83 SE5 30.17F MILLINOCKET FAIR 60 55 83 SE5 30.19R HOULTON FAIR 62 56 80 S5 30.16R PRESQUE ISLE FAIR 62 57 83 CALM 30.17S FRENCHVILLE FAIR 70 58 65 SE5 30.16F CARIBOU FAIR 63 58 83 S3 30.16R $$ NHZ002-005-008-009-011-012-014-210800- NEW HAMPSHIRE CITY SKY/WX TMP DP RH WIND PRES REMARKS PORTSMOUTH CLEAR 59 57 93 CALM 30.14S ROCHESTER FAIR 55 55 100 NW5 30.16S NASHUA FAIR 59 58 96 CALM 30.16S MANCHESTER FAIR 62 57 83 CALM 30.14S CONCORD FAIR 57 54 89 CALM 30.16S LACONIA FAIR 55 54 96 CALM 30.17S PLYMOUTH FOG 54 53 97 CALM 30.17S VSB 1 BERLIN FAIR 52 50 93 CALM 30.18S WHITEFIELD FAIR 53 52 96 CALM 30.16S JAFFREY FAIR 57 56 96 CALM 30.17S KEENE FAIR 57 56 96 CALM 30.15S LEBANON FAIR 58 53 84 CALM 30.13F MT WASHINGTON PTCLDY 52 27 37 SE8 N/A $$ VTZ005-007-008-210800- VERMONT CITY SKY/WX TMP DP RH WIND PRES REMARKS ST JOHNSBURY N/A 58 56 93 MISG 30.13S MONTPELIER FAIR 60 56 86 CALM 30.17F BURLINGTON FAIR 69 54 58 S6 30.08S $$ MAZ007-012-024-CTZ003-RIZ002-NYZ038-NYZ072-210800- SOUTHERN NEW ENGLAND AND NY CITY SKY/WX TMP DP RH WIND PRES REMARKS BOSTON FAIR 65 58 78 S5 30.16S NANTUCKET FAIR 55 32 41 NE3 30.15F PROVIDENCE FAIR 62 58 86 CALM 30.16S HARTFORD FAIR 60 58 92 CALM 30.13S ALBANY FAIR 69 54 58 S7 30.11R NEW YORK CITY MOCLDY 73 58 59 S6 30.09S $$ ANZ081-ANZ082-ANZ150-NHZ014-MEZ023>029-210800- COASTAL MARINE OBSERVATIONS STATION/POSITION TIME TEMP WIND PRES WAVE AIR SEA DIR/SP/G HT/PER (UTC) (F) (DEG/KT/KT) (MB) (FT/S) MOUNT DESERT ROC 0700 62 270/ 2/ 2 1022.3S MATINICUS ROCK 0600 61 150/ 5/ 5 1021.8R ISLE OF SHOALS 0600 67 170/ 10/ 11 1020.8R JEFFREYS LEDGE 0636 68 N/A 2/ 8 CASHES LEDGE BUO 0650 65 69 1021.9F 3/ 7 $$ .............KEY.............. WCI - WIND CHILL TC - TEMPERATURE IN CELSIUS VSB - VISIBILITY IN MILES HX - HEAT INDEX FAIR- INDICATES FEW OR NO CLOUDS BELOW 12,000 FT, WITH NO SIGNIFICANT WEATHER AND/OR OBSTRUCTIONS TO VISIBILITY.

USA.gov is the U.S. government's official web portal to all federal, state and local government web resources and services.